Back to catalog

STARLINK-36884

AliveCommunicationsSSO
NORAD 68026·PAYLOAD·🇺🇸 United States

Launched Mar 1, 2026 from Vandenberg Space Force Base

Loading…

Next Passes (next 24 hours)

TLE

FreshSource: CelesTrak SupGP

Epoch: Sep 14, 2026, 23:17 UTC

1 68026C 26040M   26257.97062500 -.00060672  00000+0 -18839-2 0  2575
2 68026  97.2855 205.3705 0001804  93.2557 115.0630 15.33461497    16

Track STARLINK-36884 in real time with AllMySat

Download on the App Store